Wind_Speed
50 51 52 53 54 55 55 56 57 58 59 60 62 62 62 62 62 61 61 62 64 65 67 68 69 69 69 67 66 66 67 67 68 68 68 67 66 65 65 64 63 63 63 64 65 66 67 68 69 71 72 73 74 76 77 78 79 81 82 82 81 79 75 73 70 69 71 72 70 69 68 67 68 68 67 67 70 70 69 68 68 67 65 63 62
51 52 53 53 53 54 54 56 58 58 59 60 60 60 59 59 59 59 61 63 65 66 68 69 68 67 66 65 66 67 68 68 68 67 65 64 64 64 64 64 64 64 65 66 67 68 69 70 71 73 74 75 76 77 79 80 82 83 83 82 81 78 75 73 71 70 70 72 72 70 69 67 66 66 65 64 66 69 70 70 69 68 68 66 64
51 52 52 51 52 54 55 56 56 56 56 58 59 59 58 57 57 60 63 65 66 67 69 68 66 65 65 65 67 67 68 67 66 64 63 62 63 63 64 65 65 66 66 67 68 69 71 72 73 74 75 77 78 79 80 82 84 84 84 82 79 78 76 75 73 71 70 71 72 71 69 67 65 64 63 61 62 64 67 70 71 69 68 68 66
51 52 52 53 53 53 52 51 52 54 56 59 61 60 58 57 59 62 64 66 67 67 67 65 64 64 65 67 67 66 66 64 63 62 62 63 63 64 64 65 66 67 68 69 70 71 72 73 74 75 77 78 79 81 82 84 85 84 82 80 79 78 78 77 75 73 72 71 71 70 68 66 65 64 62 61 60 61 63 66 70 71 70 68 67
52 51 51 51 49 47 48 50 55 58 60 61 62 60 58 59 61 64 66 66 65 65 63 63 64 65 66 66 65 64 63 63 62 62 63 63 64 65 65 66 67 68 69 70 71 72 73 74 75 77 78 79 80 82 84 85 85 84 82 80 80 80 79 78 77 76 74 72 70 69 68 65 64 64 63 60 60 60 61 62 66 69 70 69 67
51 50 49 48 47 47 50 55 59 61 61 59 59 58 59 62 64 65 65 64 63 63 63 64 65 65 65 64 63 62 62 62 62 63 63 64 65 66 67 68 68 69 70 71 72 73 74 75 76 78 79 80 82 84 86 86 85 83 82 81 80 80 80 79 78 76 74 72 70 68 67 65 63 62 62 60 59 59 59 60 63 66 68 68 68
52 51 49 49 50 50 53 57 58 59 58 56 57 59 62 63 64 64 64 63 62 62 63 64 64 63 62 62 62 62 62 63 63 63 64 65 66 67 68 68 68 69 71 72 73 74 75 76 77 79 80 81 83 85 86 86 85 83 82 81 81 80 80 78 76 74 72 71 69 67 65 64 62 61 60 60 59 58 57 57 60 64 66 66 67
54 52 47 48 51 52 54 56 56 56 56 56 58 61 63 63 63 63 63 62 62 63 63 63 62 61 61 61 62 62 63 63 64 64 65 65 66 67 68 68 69 70 71 72 73 74 75 77 78 79 81 83 84 86 85 84 84 83 82 81 80 79 77 74 72 70 69 68 66 64 62 61 60 58 58 58 57 57 56 54 56 61 64 64 64
54 53 50 51 53 52 52 53 55 56 57 58 60 62 63 63 63 62 61 61 62 62 61 60 60 60 61 61 62 63 63 64 64 65 65 65 66 67 68 69 70 71 72 73 74 75 76 77 79 81 82 84 86 85 84 83 82 82 81 81 79 76 73 71 68 66 65 64 63 61 60 60 58 56 55 55 55 55 55 53 54 57 60 62 64
53 53 53 53 53 53 54 55 57 59 59 60 61 61 62 61 60 60 60 61 60 59 59 59 60 60 61 61 62 63 63 64 64 65 65 66 67 68 69 70 71 72 72 73 74 75 77 78 80 82 83 85 85 84 83 83 82 81 81 79 75 72 68 67 65 63 62 61 61 59 58 58 57 55 54 54 53 53 54 53 53 54 55 57 63
52 52 53 52 52 54 55 56 58 59 59 60 60 60 60 59 59 59 60 59 58 58 59 59 60 60 60 61 61 62 64 64 65 65 66 66 67 68 70 71 72 72 73 74 75 76 77 79 80 82 84 84 84 83 82 82 82 81 80 77 73 70 66 64 62 60 59 58 58 57 56 56 56 54 53 52 52 52 52 51 51 52 53 53 57
51 52 53 53 53 54 55 56 57 58 58 59 59 58 58 58 58 58 58 57 57 58 58 58 59 59 60 60 61 63 65 66 66 66 67 67 68 69 70 71 72 73 74 74 75 77 78 80 81 83 83 82 81 81 82 82 81 79 77 75 73 70 67 63 60 58 55 54 54 54 53 54 54 53 52 51 51 51 51 50 49 48 50 51 53
51 51 52 53 54 55 56 56 57 57 57 57 57 57 57 57 57 56 56 56 57 57 57 57 58 59 60 61 63 65 66 67 67 68 67 67 69 70 71 72 73 74 74 75 76 77 79 80 82 81 80 79 80 80 81 80 79 77 76 75 73 70 67 64 62 59 55 52 51 51 50 50 50 50 49 49 49 49 49 49 48 46 46 48 50
51 52 52 54 54 55 55 55 55 55 55 55 55 56 56 55 54 55 55 55 55 55 56 57 59 60 62 63 65 66 67 68 68 68 68 68 70 71 72 73 74 74 75 76 77 78 80 81 80 79 78 78 79 79 79 77 76 76 76 75 72 69 66 63 61 60 57 53 52 51 49 48 48 47 47 47 46 46 46 46 46 45 45 45 45
52 52 53 54 54 54 54 53 53 53 53 54 55 54 53 53 53 54 54 54 54 56 57 59 60 62 63 65 66 67 68 69 69 69 68 68 70 72 73 74 74 75 76 77 78 79 80 80 79 78 78 78 78 77 76 74 75 75 75 74 71 68 64 61 60 58 57 55 53 52 50 49 48 46 45 45 44 44 43 42 42 43 44 43 42
52 52 53 54 53 52 52 51 52 52 52 53 53 52 52 52 52 52 52 53 55 57 59 60 62 63 64 66 67 68 68 69 69 68 67 69 71 72 73 74 75 76 77 78 79 80 79 78 78 78 78 77 76 75 73 72 73 74 73 71 69 66 63 61 61 59 58 57 56 54 52 50 48 46 43 40 39 40 41 41 39 39 40 42 41
53 53 52 52 51 50 50 51 51 51 51 52 52 52 52 51 50 51 52 55 57 58 60 62 63 64 65 66 67 69 69 70 69 68 68 70 71 72 74 75 76 77 78 79 80 79 78 78 77 77 77 75 74 72 71 72 72 71 70 68 66 64 62 61 62 62 61 60 59 56 53 50 47 44 41 38 35 35 37 38 38 37 37 38 39
52 51 50 50 49 50 50 50 50 50 51 51 51 51 50 50 50 52 54 56 58 60 61 63 64 65 66 68 68 70 70 69 68 68 70 71 72 73 74 75 76 77 78 79 79 78 77 77 76 75 74 73 71 70 70 71 70 68 66 65 63 61 59 58 60 61 61 60 59 57 54 49 46 42 39 36 34 33 33 34 35 35 35 35 35
50 50 49 49 49 50 50 50 50 50 51 51 51 50 50 50 51 53 56 58 60 62 63 65 66 67 68 69 70 70 70 69 68 69 71 71 72 73 74 75 76 77 78 78 78 77 76 75 74 73 72 71 70 69 69 68 66 64 62 61 60 59 58 56 57 57 56 55 55 54 51 47 44 41 38 35 33 31 30 29 29 32 32 31 32
49 49 49 49 49 50 50 50 50 51 51 50 50 50 50 51 53 56 58 60 62 64 65 67 67 68 69 70 71 70 69 68 69 70 71 72 73 73 73 74 76 77 77 77 76 76 75 73 72 71 70 70 69 69 68 66 63 61 60 59 58 57 56 55 55 54 52 51 50 49 47 45 42 40 38 35 33 31 29 26 24 27 29 28 27
49 49 49 49 49 50 50 50 51 51 50 50 50 50 51 52 55 58 60 62 64 66 67 69 69 70 71 71 71 70 69 69 70 71 71 72 72 73 73 74 75 76 76 76 75 74 72 71 70 70 70 69 69 68 66 63 60 59 58 57 56 56 55 54 54 53 51 49 48 47 45 43 41 39 37 35 33 31 29 26 22 22 25 26 25
49 49 49 49 49 50 50 51 51 51 50 50 50 51 53 54 57 61 63 65 67 68 69 71 71 72 72 72 72 71 70 70 71 71 71 72 72 72 73 73 73 74 75 75 74 72 70 70 70 70 69 68 67 66 63 60 58 57 56 55 55 55 55 54 53 51 50 48 47 46 44 42 40 38 37 35 33 32 31 29 25 21 21 23 24
49 49 49 49 49 50 51 51 51 51 50 50 51 53 55 56 59 63 65 67 69 70 71 72 73 73 73 73 72 71 71 71 71 71 71 72 72 72 71 71 72 73 73 73 72 70 69 70 70 69 67 66 65 63 60 57 56 55 54 54 54 54 55 54 51 50 49 48 47 45 43 41 39 38 37 36 34 32 30 29 28 25 22 21 21
49 49 49 49 50 51 51 51 51 51 51 52 54 55 57 59 61 64 67 69 70 71 72 73 74 74 74 73 73 72 71 71 71 71 71 71 71 70 69 70 71 72 71 71 70 68 69 69 69 67 65 64 62 59 57 54 53 53 52 52 52 53 54 53 51 49 49 48 46 44 41 40 39 37 35 34 32 30 27 25 24 24 23 20 19
49 49 50 50 51 51 52 52 52 52 53 55 57 58 60 62 64 66 68 70 71 72 73 74 75 75 74 74 73 72 71 71 71 71 71 70 69 68 68 69 69 70 70 69 67 67 68 68 67 64 63 62 59 56 54 52 51 51 51 50 50 51 52 51 50 49 48 47 45 43 40 39 37 35 33 31 30 30 28 26 24 23 22 19 17
50 50 51 51 52 52 53 53 54 55 56 58 60 62 64 66 67 69 70 71 72 73 74 75 75 75 75 74 73 72 71 71 71 70 70 69 68 67 67 67 68 68 67 66 66 67 67 66 64 62 61 59 56 53 51 50 49 49 49 48 49 49 49 49 48 47 47 46 44 42 40 37 35 34 33 31 29 28 28 27 25 23 21 19 16
51 51 51 52 53 53 54 55 56 57 59 61 63 65 66 68 69 70 71 73 74 74 75 75 76 76 75 74 73 72 71 71 70 69 68 67 66 66 65 66 66 65 64 64 65 66 65 63 61 60 59 56 53 51 49 47 47 47 47 47 48 48 48 47 46 45 45 45 45 43 41 38 35 34 32 31 29 27 26 25 23 22 19 17 15
52 52 52 53 54 55 56 57 58 60 62 64 65 67 68 70 71 72 73 75 75 75 76 76 76 76 75 74 73 72 71 70 69 67 66 65 64 64 64 63 63 62 62 63 64 64 62 60 59 58 56 53 51 49 47 45 44 45 46 47 48 47 47 47 46 45 45 45 45 43 41 39 36 33 31 29 28 27 26 24 22 20 17 15 13
53 54 54 55 56 57 58 59 61 63 65 66 68 69 70 72 73 75 76 76 76 76 77 77 76 76 75 74 73 71 70 68 66 65 64 63 62 62 62 61 61 60 61 62 62 60 59 58 57 55 53 51 49 48 47 45 44 44 45 47 47 46 46 46 46 45 44 43 43 41 40 38 35 33 31 29 27 26 26 24 21 19 16 13 12
56 57 57 58 59 60 61 62 64 66 67 69 70 71 73 74 76 76 77 76 77 77 77 77 76 76 75 73 72 69 67 65 64 63 62 61 60 60 59 59 59 59 60 60 59 58 57 56 55 52 50 49 48 46 45 44 44 44 45 45 46 45 44 44 44 44 43 42 40 39 37 36 34 32 30 28 26 25 23 22 21 18 14 12 11
58 59 60 60 61 62 63 65 67 69 70 71 73 74 75 76 77 77 77 77 77 77 77 77 76 75 73 71 68 66 64 63 62 60 59 59 58 58 57 57 57 58 59 58 57 56 55 54 52 49 48 46 45 44 43 43 43 44 44 44 44 43 42 42 42 43 43 41 40 38 37 35 32 31 30 28 25 23 22 20 19 16 13 11 9
61 62 63 63 64 65 67 68 70 71 73 74 75 76 77 78 78 78 78 77 77 77 77 76 74 72 69 66 64 62 61 60 58 58 57 57 56 56 55 55 56 57 56 55 54 54 54 52 49 47 46 44 43 41 41 41 42 42 43 43 42 41 40 40 40 40 40 40 39 37 36 35 32 29 28 27 25 23 22 20 18 15 12 9 8
63 64 65 66 67 69 70 71 72 74 75 76 77 78 79 79 78 78 77 77 77 75 74 71 69 66 64 62 60 59 57 56 56 55 55 54 54 54 54 55 55 55 54 53 53 53 51 49 46 45 43 42 41 40 40 41 41 41 41 41 40 39 38 38 38 38 38 38 38 36 35 34 32 30 27 26 24 23 21 19 17 14 11 8 6
66 67 68 69 70 71 73 74 75 76 77 78 79 79 79 78 77 77 76 74 72 70 67 65 62 60 59 57 55 54 54 53 53 53 53 53 53 53 54 54 54 53 52 52 52 50 48 46 44 42 41 40 39 39 40 40 41 40 40 39 38 38 37 37 36 36 37 37 37 36 34 32 31 30 27 25 23 22 20 18 16 14 11 7 4
70 71 71 72 73 74 75 76 77 78 79 79 79 78 77 76 75 73 71 68 65 63 60 58 56 55 53 52 51 51 51 51 52 52 53 53 53 53 53 53 52 51 51 51 50 48 46 44 42 40 39 38 37 38 39 40 40 39 39 38 37 37 36 36 35 35 35 35 35 35 34 32 29 28 26 23 22 21 20 17 15 13 11 7 3
73 73 74 75 76 77 78 78 78 78 78 77 76 75 73 71 68 65 62 60 58 55 53 52 51 49 48 48 49 49 50 50 51 52 53 53 53 53 53 52 50 50 50 49 48 46 44 42 41 40 38 37 36 37 38 39 39 38 37 37 36 35 35 35 34 33 33 33 33 33 33 32 30 28 26 23 20 19 18 17 15 12 10 8 5
76 77 77 77 78 78 78 77 77 75 74 72 70 68 65 62 59 56 54 53 51 49 47 46 46 45 46 47 48 49 50 51 52 53 53 53 53 53 52 51 50 49 49 47 45 43 42 40 40 39 38 37 36 36 37 38 38 37 35 35 35 34 33 33 33 32 32 31 31 31 31 31 30 28 26 24 21 19 17 16 14 12 10 8 7
78 78 77 77 76 75 74 73 71 69 67 65 62 59 56 54 51 50 48 47 46 44 44 44 44 44 45 47 48 49 51 52 52 53 53 53 53 52 51 50 50 49 47 45 42 41 40 39 38 38 37 36 35 35 35 36 37 36 35 33 33 33 33 32 31 31 31 30 29 29 29 29 29 27 26 24 22 19 16 14 13 12 11 9 7
77 76 74 73 71 69 68 66 63 61 59 57 55 52 50 49 47 46 45 44 43 43 42 43 44 44 46 48 49 50 51 52 52 53 53 53 53 52 51 50 49 47 45 42 40 39 38 38 37 36 35 35 34 33 33 33 34 35 34 33 32 32 32 32 31 31 31 30 29 28 27 27 26 26 25 24 22 20 17 15 13 12 11 10 8
72 70 69 66 64 62 60 58 56 55 53 52 50 49 47 46 45 44 43 42 42 42 42 43 44 45 47 49 50 51 52 52 52 53 53 54 53 53 51 49 47 45 43 41 38 37 37 36 36 35 35 34 34 33 32 32 32 33 33 33 33 32 31 31 32 31 31 30 29 28 26 25 25 24 24 22 21 20 19 16 13 12 11 10 9
65 63 62 61 59 57 55 53 52 50 49 48 46 46 46 45 44 42 42 42 42 43 43 44 45 46 48 49 50 51 51 52 52 53 54 54 53 52 50 48 45 43 41 39 37 36 35 35 34 34 34 34 35 35 34 32 31 31 32 32 32 32 31 31 31 31 30 30 28 27 26 24 23 23 23 22 21 20 18 17 15 12 11 10 10
60 59 58 57 55 54 53 52 50 49 47 45 44 44 44 43 42 41 41 42 43 43 44 45 46 47 48 49 50 51 51 52 53 54 54 53 51 50 48 46 44 42 40 38 37 35 34 33 32 33 33 34 35 35 35 34 33 32 32 31 31 31 31 30 30 30 29 28 27 26 25 23 22 22 21 21 21 20 18 17 16 14 12 11 10
57 57 56 55 53 52 52 51 50 48 46 45 44 43 42 41 41 42 42 43 44 44 45 46 47 48 49 49 50 51 52 53 53 53 52 51 49 48 46 44 42 41 39 38 36 35 34 32 31 32 32 33 33 34 35 35 35 35 34 33 32 31 31 30 29 29 27 26 24 24 23 23 22 21 21 20 20 20 19 17 16 15 13 12 11
55 55 54 53 52 50 50 49 49 48 46 45 44 43 42 42 43 43 44 44 45 45 46 47 47 48 49 50 51 52 53 53 52 51 50 49 47 46 44 42 41 39 38 37 36 35 33 32 31 31 30 30 30 31 33 34 36 36 36 36 35 34 32 31 29 28 26 24 23 22 22 22 22 21 20 20 20 19 19 18 17 15 14 13 12
54 52 51 51 50 48 47 47 47 47 46 45 44 44 44 44 44 44 45 45 46 46 47 48 48 49 50 51 52 52 52 51 50 48 47 46 45 43 42 40 39 38 37 37 35 34 33 32 31 30 29 28 28 28 30 32 34 35 36 37 36 36 35 33 31 28 25 23 22 21 21 21 22 21 21 20 19 19 18 18 18 17 15 14 12
52 50 49 49 48 47 46 46 46 46 46 45 44 44 44 44 45 45 46 46 47 47 48 49 50 51 52 52 52 51 49 48 47 46 45 44 43 41 40 40 39 38 37 35 35 34 33 32 30 29 28 28 27 27 27 28 30 31 33 34 34 34 34 33 32 28 25 23 22 21 21 21 21 22 21 21 20 19 18 18 17 17 17 16 14
51 50 49 48 48 47 46 46 46 45 45 45 45 45 45 45 45 46 47 47 48 49 50 51 51 51 51 50 49 48 47 46 45 44 43 42 41 40 40 39 38 37 36 35 34 33 32 31 30 30 30 30 30 29 28 27 27 28 29 30 30 31 31 31 30 28 25 22 21 21 21 21 20 21 21 21 21 20 19 18 17 16 16 16 16
50 49 48 48 47 47 47 47 46 47 47 47 47 46 45 46 47 47 47 48 49 49 50 50 50 49 48 47 46 45 45 44 43 42 41 40 40 39 39 38 38 37 36 35 34 33 31 30 30 30 31 31 32 32 30 29 28 27 27 27 27 28 28 28 28 27 25 23 21 21 21 21 21 20 20 21 21 20 20 19 17 16 15 15 15
49 47 46 46 46 45 45 46 46 48 49 49 49 47 46 46 47 47 47 48 48 48 48 47 46 45 44 44 44 44 43 42 42 41 40 39 39 39 38 38 38 37 37 36 34 32 31 31 31 31 32 32 33 33 32 31 30 28 27 26 25 26 26 27 27 27 26 24 23 21 21 21 22 21 21 20 20 20 20 20 19 18 17 15 14
46 45 44 43 43 43 44 45 46 46 47 48 49 49 47 47 47 47 47 47 46 46 45 44 43 43 43 43 43 42 42 41 40 39 39 38 38 38 38 38 38 37 36 35 34 33 32 32 32 33 33 33 33 33 33 33 31 30 28 27 25 25 25 26 26 27 27 27 26 24 23 22 22 22 22 22 21 20 20 20 20 19 19 18 16
44 43 42 41 42 43 44 44 45 46 46 46 47 47 47 47 47 46 45 44 43 43 42 42 42 42 42 42 41 41 40 39 39 39 38 38 38 38 38 38 38 37 35 34 34 33 33 33 33 34 34 34 35 35 35 34 33 32 31 29 27 26 25 25 26 26 27 28 28 27 26 25 23 22 22 23 22 21 20 20 20 20 20 19 19
Wind_Direction
278 280 282 283 285 287 288 289 290 291 293 295 296 298 299 299 300 300 301 303 305 306 307 308 309 309 309 308 308 307 307 307 307 307 306 306 306 306 307 308 309 309 308 308 308 308 309 309 309 309 309 309 309 309 309 309 309 309 309 308 308 308 307 306 306 305 304 301 299 297 295 292 290 287 285 283 281 279 276 273 271 268 265 260 255
280 281 284 286 287 289 289 291 292 293 295 297 298 299 299 298 299 299 302 303 304 305 307 308 308 307 307 307 307 307 307 306 306 306 306 307 307 308 308 309 309 309 309 309 309 309 309 309 309 309 310 310 310 310 310 310 310 310 310 310 309 309 308 308 308 307 305 303 301 299 296 293 290 287 285 282 280 278 277 274 271 268 266 263 258
280 282 284 286 289 290 291 292 294 294 295 296 298 298 297 297 298 300 302 303 303 305 306 306 306 306 306 306 306 306 306 306 306 306 307 307 308 308 308 308 309 309 309 310 310 310 309 309 310 310 310 311 311 311 311 311 311 310 311 311 311 311 311 310 309 308 307 305 302 300 298 296 293 289 286 283 279 276 275 274 272 269 266 263 260
280 283 285 288 289 290 291 292 292 293 294 296 296 296 295 296 298 300 301 302 303 304 304 304 304 305 305 305 306 306 306 306 306 307 307 308 308 308 308 308 309 309 310 310 310 310 310 310 311 311 311 311 312 312 311 311 311 312 312 312 313 313 312 312 311 310 308 306 303 301 299 297 294 291 288 285 281 277 274 272 272 270 268 265 261
281 285 288 288 287 285 286 287 288 290 292 292 292 292 292 294 297 299 300 301 302 303 303 303 304 304 305 305 305 305 305 306 307 307 307 308 308 308 308 309 309 310 310 310 310 310 311 311 311 311 312 312 312 312 312 312 313 313 314 314 315 314 314 313 312 311 309 307 304 302 300 298 295 292 289 286 283 279 275 272 271 270 269 267 263
281 283 284 283 280 278 279 282 285 287 289 289 290 290 291 293 296 298 299 300 301 301 302 303 304 304 304 304 305 305 306 306 307 307 307 308 308 308 309 310 310 311 311 311 311 311 312 312 312 312 312 312 312 312 313 313 314 315 315 316 316 315 315 314 312 311 309 307 305 303 301 299 296 294 291 288 285 281 278 275 272 270 268 267 265
279 280 279 279 278 277 278 282 284 285 287 289 290 290 291 294 296 298 299 300 300 301 302 303 303 304 304 304 305 305 306 306 307 307 307 308 308 309 310 311 312 312 312 312 312 312 312 312 312 312 312 313 313 313 314 315 315 316 316 316 316 315 314 313 312 311 309 307 305 303 301 299 297 294 292 290 287 284 280 277 274 272 269 266 265
278 279 276 275 277 279 282 284 284 285 287 289 289 290 292 295 296 298 299 300 301 302 302 303 303 303 304 305 305 306 306 306 306 307 308 309 310 311 311 312 312 312 312 313 313 312 312 312 312 313 313 314 314 314 315 315 316 316 317 316 316 314 313 313 312 311 309 307 305 304 302 299 297 295 293 290 288 285 282 278 275 273 272 270 266
277 277 275 275 278 281 282 283 283 285 287 288 289 291 293 295 297 298 299 300 301 302 302 302 303 303 304 305 305 305 305 306 306 307 309 310 311 312 312 312 313 313 313 313 312 312 312 312 313 313 314 315 315 315 315 316 316 317 316 316 314 314 314 314 313 311 310 308 306 305 304 302 299 297 294 292 289 286 283 280 276 273 272 272 270
277 277 278 278 279 280 280 281 283 285 287 289 291 292 294 296 297 298 300 301 302 302 302 303 304 304 305 305 305 305 305 306 307 309 310 311 312 312 312 313 313 313 313 312 312 312 312 313 314 315 315 316 315 316 316 317 317 317 316 315 314 314 315 315 314 313 312 310 309 308 306 304 302 300 297 294 291 288 285 282 278 274 272 270 270
277 277 278 279 280 280 281 283 285 287 289 291 292 293 295 296 297 299 300 301 302 302 303 304 304 305 305 305 305 305 306 307 308 309 310 311 312 313 313 313 313 313 312 312 312 312 313 314 315 316 316 316 316 316 317 318 318 317 316 315 316 317 317 317 316 314 313 312 311 309 308 306 304 302 300 297 294 291 287 283 280 276 274 271 269
276 277 278 279 280 281 282 284 286 288 290 291 292 294 295 296 298 299 300 302 303 303 304 304 305 305 305 305 306 306 306 307 308 309 310 312 313 313 312 313 313 312 312 312 312 313 314 315 316 316 316 316 316 317 318 318 318 317 317 318 319 319 320 319 318 316 314 313 312 310 308 307 306 304 302 299 297 294 290 287 283 279 276 272 269
277 278 279 281 281 282 284 285 287 288 289 290 292 293 295 297 299 300 301 302 303 304 304 305 305 305 306 306 306 306 306 307 308 309 310 312 312 312 312 312 312 312 312 313 313 314 316 316 316 316 316 317 318 319 319 319 319 319 320 321 321 322 322 322 320 318 317 316 314 312 311 309 307 306 304 301 298 296 293 289 286 282 277 273 270
278 279 280 282 283 284 285 286 287 288 289 290 292 294 296 298 300 301 301 302 303 304 305 305 305 306 306 306 306 305 306 307 307 308 311 312 311 311 312 312 312 312 313 313 315 316 316 316 316 317 317 318 319 319 319 320 321 322 322 322 323 323 323 323 321 320 320 321 319 316 315 313 311 310 307 305 302 298 295 291 288 285 280 276 271
279 280 282 283 284 285 285 286 286 288 290 292 294 295 297 299 300 301 302 303 304 305 305 306 306 306 305 305 305 305 306 306 307 309 312 312 311 311 312 312 312 313 313 315 316 316 317 317 317 318 319 319 319 319 320 322 324 323 323 323 323 324 324 324 323 322 323 323 322 320 320 318 316 314 310 308 305 301 297 293 290 287 284 281 276
280 281 282 283 284 285 285 285 287 289 292 294 295 296 298 299 300 300 302 303 305 305 306 306 306 306 305 305 305 305 306 306 308 311 312 311 310 311 312 312 313 314 315 316 316 317 317 318 318 318 318 319 319 320 323 325 325 324 323 323 324 325 326 326 326 325 326 326 325 324 323 321 318 315 312 309 305 301 298 295 292 288 286 284 280
280 282 282 283 283 284 285 286 289 291 293 294 295 297 298 298 299 300 302 304 305 306 307 307 306 306 306 306 306 306 306 308 310 311 311 310 311 312 312 313 314 315 315 316 316 317 318 318 318 318 318 319 320 322 325 326 325 324 323 323 325 326 328 329 329 328 329 328 326 324 323 321 319 316 314 311 307 302 299 297 295 292 288 285 283
280 281 282 282 283 284 286 288 290 292 293 294 295 296 297 297 299 301 303 304 306 307 307 307 307 307 307 307 307 307 307 310 311 311 310 311 312 313 313 314 315 315 315 315 316 318 318 317 317 317 318 320 322 325 326 326 324 324 324 324 326 328 329 331 330 329 329 327 325 324 324 323 321 319 318 315 311 305 301 298 296 294 291 288 286
280 280 281 282 284 286 288 289 291 292 293 294 294 295 296 297 299 302 303 304 306 307 308 308 308 308 308 308 308 308 309 311 311 310 310 312 313 313 314 314 314 314 314 315 316 317 317 317 317 318 320 322 324 326 326 325 324 324 324 325 327 329 330 331 330 328 327 326 324 323 324 324 324 323 322 319 315 309 304 300 297 294 292 290 288
279 280 282 284 286 287 289 290 291 292 292 293 294 294 295 297 300 301 302 304 306 307 308 309 309 309 309 309 309 309 310 310 309 310 311 312 313 314 314 313 313 313 314 315 316 316 316 317 318 320 322 323 325 326 326 325 325 325 325 327 328 329 330 330 329 328 327 326 325 325 326 327 327 326 325 324 321 316 310 305 301 298 295 293 289
279 281 284 285 287 288 289 290 290 291 291 292 293 294 295 297 299 300 301 303 305 306 308 309 309 309 309 309 309 310 310 309 309 310 311 312 313 313 313 313 312 313 313 314 315 316 317 319 320 321 323 325 325 326 326 326 326 326 327 328 329 329 330 331 330 329 328 329 329 330 331 331 331 330 329 329 327 324 319 313 308 304 301 298 294
281 282 284 285 286 287 288 289 289 290 290 291 292 293 295 298 299 299 301 303 304 305 307 308 308 309 309 309 309 309 308 308 309 310 311 311 312 312 312 312 312 312 313 314 315 316 318 320 321 323 324 325 325 325 326 327 327 327 327 329 330 331 331 331 331 331 332 333 334 335 335 334 335 334 333 332 332 331 328 323 319 316 309 304 300
281 282 283 284 285 286 287 288 289 289 290 291 293 294 296 297 298 298 300 301 303 304 305 306 307 308 308 308 308 307 307 308 309 310 310 311 311 312 312 311 311 311 312 314 316 318 320 321 322 323 324 325 325 326 327 328 327 327 328 330 332 332 331 332 333 334 335 336 337 338 339 338 338 338 337 336 334 332 329 325 323 322 319 313 307
280 281 283 284 285 286 287 288 289 289 290 291 293 294 296 296 297 298 299 300 301 302 303 305 306 307 307 307 307 306 307 308 308 309 310 310 311 311 311 310 309 310 312 314 316 319 320 321 322 323 324 325 326 327 327 327 327 327 329 331 332 332 332 333 335 337 338 339 339 340 342 342 341 340 338 336 334 331 329 327 325 324 322 320 315
280 281 283 284 285 286 287 288 289 289 290 292 293 294 295 296 296 297 298 298 300 301 302 304 305 306 306 306 305 306 306 307 308 308 309 310 310 310 309 308 308 310 312 315 318 319 320 321 322 323 324 325 326 327 327 327 328 328 329 331 333 333 334 335 337 339 340 340 340 342 344 344 342 340 339 338 338 337 336 335 334 331 328 326 324
281 282 284 285 286 286 287 287 289 290 291 292 293 294 295 295 296 296 297 298 299 300 302 303 304 304 304 305 305 305 306 306 307 308 308 309 309 308 307 307 309 311 314 316 319 320 320 321 322 324 324 325 326 327 328 328 328 327 328 331 334 335 335 337 339 340 340 341 342 344 346 346 345 343 341 342 344 343 341 339 338 336 334 334 334
282 283 284 285 285 286 286 287 288 289 291 292 293 293 294 294 295 295 296 297 298 300 301 302 302 303 303 303 304 305 305 305 306 307 308 308 307 306 306 307 309 312 315 318 319 320 320 322 323 324 325 326 327 327 327 327 327 327 329 333 335 336 336 338 339 341 342 343 345 346 347 348 348 347 346 345 345 346 345 344 342 339 340 343 344
282 283 284 284 285 285 286 287 288 289 290 291 292 293 293 294 294 295 296 297 298 300 300 301 301 301 302 302 303 304 304 305 305 306 306 306 305 304 305 308 311 314 317 318 319 320 321 322 323 324 325 326 326 326 326 327 328 330 332 334 336 337 338 339 341 343 345 347 347 347 348 349 349 349 348 347 347 348 348 347 345 344 346 352 356
282 282 283 284 284 285 286 287 288 289 290 291 292 292 292 293 294 295 296 297 298 299 299 299 300 300 300 301 302 303 303 304 304 305 305 304 303 304 306 310 313 315 318 319 319 320 321 322 323 324 325 326 326 326 326 328 330 333 334 335 336 338 340 341 342 343 346 348 348 348 349 349 350 350 350 350 350 351 350 349 349 349 352 1 8
281 282 282 283 284 285 286 287 289 290 290 290 291 291 292 293 294 295 296 297 297 297 298 298 299 299 300 300 301 302 302 303 303 303 303 302 302 305 308 312 314 317 318 319 319 320 321 322 323 324 326 326 326 326 327 330 332 334 335 335 336 338 340 342 342 344 346 348 349 349 350 351 351 351 351 351 352 352 352 350 350 351 356 8 18
281 282 283 284 285 286 287 288 289 289 290 290 290 291 292 293 293 294 295 296 296 296 297 297 297 298 299 299 300 301 301 302 302 302 301 301 303 307 310 313 315 317 318 318 319 320 321 322 323 325 326 326 326 326 328 331 333 334 334 334 336 338 340 343 344 345 346 347 349 350 352 353 354 353 351 351 352 353 354 353 352 353 359 14 26
282 283 284 284 285 286 287 288 288 289 289 290 290 291 291 292 293 294 295 295 295 295 296 296 296 297 298 298 299 300 301 301 300 300 300 302 306 309 311 314 316 317 317 318 319 320 321 322 324 326 326 326 325 326 329 331 332 333 333 333 335 338 340 343 344 345 345 346 349 352 353 353 354 355 354 352 352 354 355 355 354 355 0 14 30
282 283 284 285 286 287 287 288 288 288 289 289 290 290 291 291 292 293 293 293 294 294 294 294 295 296 297 298 299 300 299 298 298 299 301 305 308 310 312 314 316 317 317 318 319 320 320 322 324 326 325 325 326 327 329 330 331 331 331 332 335 337 340 342 343 344 345 346 349 353 355 354 354 355 356 355 354 353 354 354 354 353 356 9 31
282 283 284 285 286 286 287 287 287 288 288 288 289 289 290 291 291 292 292 292 292 292 293 293 294 295 297 298 298 297 296 296 298 301 305 307 309 311 313 315 315 317 318 319 319 319 320 322 324 325 325 325 327 329 329 329 329 330 330 332 335 337 339 342 344 345 347 347 349 351 355 356 355 356 357 356 354 352 352 353 353 351 351 358 20
283 284 285 285 286 286 286 286 287 287 287 288 288 289 289 290 290 290 290 290 291 292 292 294 295 296 296 295 294 293 295 298 301 304 306 307 309 311 313 314 316 317 318 318 318 319 320 322 324 325 326 326 328 328 327 327 327 328 330 332 334 337 339 342 343 345 347 348 349 350 352 354 356 357 357 356 354 353 351 351 351 350 345 343 349
283 284 285 285 285 285 286 286 286 286 287 287 288 288 288 288 288 288 289 289 290 292 293 293 293 292 291 291 292 295 298 302 304 305 306 308 309 311 313 315 316 317 317 317 317 319 321 323 324 325 325 326 327 327 326 324 325 327 330 332 334 337 339 341 343 345 347 348 349 349 351 353 355 357 357 357 356 354 351 347 347 347 341 332 319
284 284 284 285 285 285 285 285 286 286 286 287 287 287 287 287 287 287 288 289 290 290 290 289 288 289 290 292 296 299 301 303 304 305 306 307 309 311 314 316 316 316 316 316 317 319 321 323 324 323 324 325 325 325 323 322 323 327 331 332 334 336 339 340 342 344 346 348 348 349 350 352 354 355 356 356 356 355 350 346 344 342 337 328 312
284 284 284 284 284 284 284 285 285 285 286 286 286 286 286 286 286 286 286 286 287 287 287 287 288 291 293 296 298 300 301 303 304 304 305 307 310 313 315 315 315 314 315 316 317 319 321 322 321 321 321 322 322 322 321 321 322 326 330 333 334 336 337 339 341 343 345 346 347 349 350 351 352 353 355 355 355 354 351 347 343 338 332 324 309
283 283 283 283 283 283 284 284 285 285 285 285 285 285 284 284 283 284 284 284 285 286 287 289 291 293 295 297 298 299 301 302 303 304 306 308 311 313 313 313 312 313 314 315 317 319 320 319 319 318 318 318 318 318 318 320 323 326 330 332 334 335 337 339 341 343 344 345 346 348 349 350 350 351 353 353 354 354 352 349 343 336 329 320 307
283 283 283 283 283 283 283 284 285 285 285 285 285 284 283 282 282 283 283 284 285 287 288 290 292 293 295 296 297 298 299 300 302 304 307 309 311 311 311 310 311 312 313 314 316 317 317 317 316 316 316 316 315 316 317 321 325 328 329 330 332 334 336 338 340 341 343 344 345 347 348 349 349 349 350 351 353 353 352 348 342 334 325 317 306
282 282 283 283 284 284 284 284 284 284 284 283 282 280 280 280 282 283 283 284 285 287 288 290 291 293 294 295 296 297 299 301 303 305 307 308 308 308 308 309 310 311 312 313 314 315 315 315 315 315 314 314 315 316 319 324 327 328 328 329 330 332 334 337 338 340 341 343 344 346 348 350 351 350 349 349 351 351 350 347 342 335 324 314 305
283 283 284 284 285 286 285 284 284 283 282 280 278 278 278 280 281 282 283 284 286 287 289 290 292 293 293 294 295 297 299 301 303 304 306 306 305 305 307 309 310 310 311 311 313 314 314 314 314 313 314 315 316 319 321 324 326 326 326 327 328 330 333 335 337 338 340 342 344 345 348 350 353 353 351 349 348 348 348 347 344 338 328 316 304
284 284 284 285 285 285 285 285 285 284 284 282 281 281 281 282 282 283 284 285 287 288 289 290 291 292 292 294 296 297 299 301 302 303 303 303 303 305 307 308 309 309 309 310 312 313 313 312 312 313 314 316 318 320 321 322 323 324 325 326 328 330 332 334 336 338 339 341 343 346 348 351 353 355 355 353 350 348 347 346 344 339 333 322 308
283 283 284 284 284 284 284 284 284 284 284 283 283 283 283 283 284 284 285 287 288 288 289 290 291 292 293 294 296 297 299 300 300 300 301 302 303 304 306 306 306 307 308 309 310 311 311 311 312 313 314 316 317 317 317 318 320 322 323 325 327 329 331 333 335 337 338 340 343 346 348 350 352 355 357 357 355 352 349 347 344 340 336 328 317
281 282 282 283 283 283 283 282 282 282 283 283 284 284 284 284 284 285 285 286 287 288 288 290 291 292 293 294 295 297 297 298 298 298 299 301 302 303 304 304 305 305 307 308 309 310 310 311 311 312 312 312 312 312 313 314 316 319 321 323 325 327 328 330 332 335 336 338 341 344 346 347 348 350 353 355 356 355 353 350 347 342 338 332 323
279 280 280 280 281 281 281 281 281 281 282 283 282 282 282 283 283 284 285 285 286 287 288 289 290 291 292 293 294 295 295 295 296 297 298 299 300 301 302 303 304 304 305 307 308 309 310 309 308 308 307 307 308 308 309 309 311 314 316 319 321 323 324 325 327 330 332 335 337 340 342 342 342 344 346 348 351 352 352 351 349 345 340 334 327
277 278 278 278 278 278 278 278 279 279 280 280 279 280 281 281 281 282 283 284 285 286 286 287 288 289 291 292 292 293 293 294 295 296 297 298 300 301 301 302 303 304 306 307 308 308 307 306 305 305 306 307 307 308 308 309 310 311 313 315 317 319 321 321 322 323 326 330 332 334 335 336 336 337 338 340 342 344 346 347 347 345 341 335 329
275 275 275 275 275 275 275 275 276 277 277 277 277 278 278 279 280 281 281 282 283 283 284 285 287 289 290 290 291 292 293 294 295 296 297 299 300 300 301 302 304 305 306 307 306 305 304 304 304 305 305 306 307 308 310 312 312 313 314 315 317 318 319 319 319 319 321 323 326 328 328 328 329 329 331 333 335 337 338 340 340 340 339 335 330
274 274 274 274 274 274 275 275 275 275 276 278 279 280 280 280 280 281 281 282 283 284 285 287 288 288 288 289 290 292 293 294 295 297 298 299 300 300 301 302 303 304 304 305 304 304 304 304 304 305 304 304 306 308 311 313 315 315 316 317 318 319 318 318 317 317 317 318 320 322 323 323 323 324 325 327 329 331 332 333 334 333 332 330 328
273 273 274 274 274 274 274 273 273 274 275 276 279 280 281 281 281 282 283 284 284 285 286 287 287 288 288 290 291 292 293 295 296 298 298 299 299 300 300 301 302 302 303 303 304 304 304 305 304 303 303 304 306 309 311 313 315 316 316 316 316 316 316 315 315 315 315 315 316 317 318 318 319 320 322 323 325 327 328 328 328 328 326 325 323
273 273 274 273 273 273 273 273 273 274 274 275 276 278 279 280 281 282 283 284 284 285 285 286 287 288 289 291 292 293 294 295 296 297 297 298 298 298 298 299 300 301 302 303 303 304 304 303 302 302 303 305 307 309 312 313 314 314 314 313 313 314 314 313 312 313 312 312 312 313 314 315 316 318 319 319 320 322 323 324 323 322 321 320 318
Height
10675 10674 10673 10672 10670 10668 10667 10665 10663 10662 10660 10658 10656 10654 10652 10650 10648 10646 10644 10641 10639 10636 10633 10630 10627 10624 10621 10619 10616 10613 10610 10607 10603 10600 10596 10591 10586 10582 10579 10576 10573 10569 10565 10561 10557 10552 10548 10543 10539 10534 10530 10525 10519 10514 10509 10503 10498 10491 10485 10480 10473 10469 10465 10461 10458 10454 10444 10437 10434 10432 10428 10425 10420 10415 10414 10411 10405 10403 10404 10405 10405 10406 10407 10410 10413
10670 10669 10668 10666 10664 10663 10661 10659 10657 10655 10653 10652 10650 10648 10646 10644 10642 10640 10638 10635 10633 10631 10628 10625 10622 10619 10616 10613 10610 10607 10604 10600 10597 10593 10589 10584 10580 10575 10572 10569 10566 10562 10558 10554 10549 10545 10540 10535 10531 10526 10521 10515 10510 10504 10499 10493 10487 10481 10475 10469 10462 10456 10452 10449 10445 10442 10435 10425 10419 10416 10413 10410 10407 10403 10402 10401 10397 10391 10388 10387 10390 10392 10393 10395 10398
10665 10664 10663 10661 10659 10658 10655 10653 10651 10650 10648 10647 10645 10643 10641 10639 10637 10635 10632 10630 10628 10625 10622 10619 10616 10613 10610 10607 10604 10601 10597 10594 10590 10586 10582 10578 10574 10569 10565 10562 10559 10555 10551 10547 10542 10537 10532 10527 10522 10517 10511 10506 10500 10495 10489 10483 10476 10471 10464 10458 10452 10445 10439 10435 10432 10428 10424 10416 10407 10403 10400 10396 10393 10390 10389 10389 10387 10383 10377 10372 10372 10375 10378 10380 10384
10660 10659 10657 10656 10654 10652 10650 10647 10646 10645 10643 10642 10640 10637 10636 10634 10632 10630 10627 10625 10623 10620 10617 10614 10611 10608 10604 10601 10598 10595 10591 10587 10584 10580 10576 10572 10568 10564 10560 10556 10552 10548 10544 10539 10534 10529 10524 10519 10513 10508 10502 10497 10491 10485 10479 10473 10466 10460 10454 10447 10441 10435 10428 10422 10417 10413 10410 10405 10396 10390 10387 10384 10381 10377 10375 10375 10373 10371 10369 10363 10358 10358 10361 10365 10369
10656 10655 10653 10650 10648 10647 10645 10644 10642 10640 10639 10638 10635 10633 10631 10629 10628 10626 10623 10620 10618 10615 10612 10608 10605 10602 10599 10596 10592 10589 10585 10581 10578 10574 10570 10566 10562 10558 10554 10550 10546 10541 10537 10532 10526 10521 10516 10510 10505 10499 10493 10488 10482 10476 10468 10462 10456 10450 10444 10437 10431 10424 10417 10410 10405 10399 10395 10391 10385 10379 10374 10372 10370 10365 10362 10363 10361 10358 10356 10354 10350 10345 10345 10348 10352
10652 10653 10652 10647 10643 10643 10642 10640 10638 10636 10635 10633 10630 10628 10626 10625 10623 10621 10618 10615 10612 10609 10606 10603 10600 10596 10593 10590 10586 10583 10579 10575 10572 10568 10564 10560 10556 10551 10548 10543 10539 10534 10529 10524 10518 10513 10507 10502 10496 10490 10485 10479 10472 10466 10459 10451 10445 10440 10434 10427 10421 10414 10407 10400 10394 10389 10382 10377 10373 10369 10363 10360 10358 10354 10349 10349 10349 10347 10345 10343 10339 10335 10333 10334 10336
10647 10648 10649 10644 10639 10639 10638 10635 10634 10632 10630 10629 10625 10623 10621 10619 10618 10615 10612 10609 10606 10603 10600 10597 10594 10591 10587 10584 10581 10577 10573 10570 10566 10562 10559 10555 10550 10545 10541 10537 10532 10526 10521 10516 10511 10505 10499 10493 10488 10482 10476 10470 10463 10456 10450 10442 10435 10429 10424 10418 10412 10405 10398 10392 10386 10379 10372 10366 10360 10357 10353 10348 10346 10344 10340 10336 10335 10334 10334 10333 10329 10322 10320 10322 10323
10641 10642 10644 10640 10635 10634 10631 10627 10627 10626 10625 10624 10621 10617 10615 10614 10612 10609 10606 10603 10600 10597 10594 10591 10588 10585 10582 10579 10575 10571 10568 10564 10560 10557 10553 10549 10544 10539 10534 10530 10525 10519 10514 10509 10503 10498 10492 10485 10480 10474 10467 10461 10454 10447 10440 10434 10428 10421 10415 10409 10403 10397 10390 10384 10378 10371 10363 10357 10351 10347 10343 10338 10335 10333 10330 10326 10324 10321 10321 10323 10320 10312 10308 10308 10310
10635 10636 10636 10634 10632 10630 10626 10622 10620 10620 10620 10618 10615 10612 10610 10608 10606 10602 10599 10597 10594 10591 10588 10585 10583 10579 10576 10573 10569 10565 10562 10558 10554 10551 10547 10543 10538 10533 10527 10523 10518 10513 10507 10502 10496 10490 10485 10478 10472 10465 10458 10451 10444 10438 10432 10426 10420 10414 10407 10401 10395 10389 10383 10376 10369 10363 10356 10348 10342 10338 10333 10327 10324 10323 10319 10315 10314 10311 10308 10310 10309 10305 10301 10297 10294
10629 10628 10628 10628 10627 10625 10622 10619 10617 10615 10614 10612 10609 10606 10604 10602 10600 10596 10593 10591 10589 10586 10583 10580 10577 10574 10571 10567 10563 10560 10555 10551 10548 10544 10540 10536 10531 10526 10521 10516 10511 10506 10500 10495 10490 10484 10477 10471 10464 10457 10450 10443 10435 10429 10423 10417 10411 10404 10398 10391 10386 10381 10376 10368 10361 10354 10348 10341 10334 10330 10325 10318 10314 10313 10310 10305 10303 10300 10298 10297 10297 10294 10294 10292 10285
10623 10622 10621 10621 10620 10618 10616 10614 10611 10609 10607 10605 10602 10599 10598 10596 10594 10590 10588 10585 10583 10580 10577 10574 10571 10568 10565 10561 10557 10553 10549 10545 10542 10538 10534 10529 10525 10519 10514 10509 10504 10499 10494 10488 10483 10477 10470 10464 10457 10450 10443 10435 10428 10421 10414 10408 10401 10395 10387 10380 10375 10370 10366 10361 10355 10347 10341 10335 10327 10322 10317 10311 10306 10303 10300 10296 10292 10290 10287 10286 10286 10284 10283 10284 10280
10617 10616 10615 10614 10614 10612 10610 10608 10606 10603 10601 10598 10595 10593 10592 10590 10588 10585 10582 10579 10577 10574 10571 10568 10565 10562 10559 10555 10551 10547 10542 10538 10535 10531 10527 10523 10518 10513 10508 10503 10497 10492 10487 10481 10475 10469 10463 10456 10450 10443 10436 10429 10421 10414 10407 10399 10392 10385 10377 10370 10364 10359 10354 10350 10345 10340 10336 10330 10323 10316 10310 10304 10299 10295 10292 10288 10283 10280 10277 10275 10275 10276 10274 10273 10273
10610 10609 10608 10608 10607 10605 10603 10601 10599 10597 10595 10592 10590 10588 10586 10584 10582 10579 10576 10574 10571 10568 10565 10562 10559 10556 10552 10549 10544 10540 10536 10532 10528 10525 10521 10516 10511 10506 10501 10496 10491 10485 10479 10474 10468 10462 10456 10449 10442 10436 10429 10422 10415 10408 10400 10392 10384 10376 10368 10361 10355 10349 10344 10338 10333 10328 10326 10322 10316 10310 10304 10299 10293 10288 10284 10280 10276 10272 10268 10265 10264 10265 10264 10262 10262
10603 10603 10602 10601 10599 10598 10597 10595 10593 10591 10588 10586 10584 10582 10581 10579 10576 10573 10570 10568 10565 10562 10559 10556 10553 10550 10546 10542 10537 10533 10529 10525 10522 10518 10515 10510 10504 10498 10494 10489 10484 10478 10472 10467 10461 10455 10448 10442 10435 10429 10422 10416 10409 10402 10394 10386 10377 10368 10360 10353 10347 10342 10337 10331 10324 10318 10314 10311 10306 10301 10297 10292 10287 10282 10277 10272 10269 10265 10261 10257 10255 10254 10254 10253 10253
10596 10596 10595 10593 10592 10591 10589 10588 10586 10584 10582 10580 10578 10576 10575 10573 10570 10567 10564 10562 10559 10556 10553 10550 10547 10543 10539 10535 10531 10526 10522 10519 10515 10512 10508 10503 10497 10491 10486 10481 10476 10471 10465 10460 10454 10448 10442 10435 10428 10422 10415 10409 10402 10396 10389 10380 10371 10362 10354 10347 10341 10336 10331 10325 10319 10313 10307 10303 10298 10293 10289 10284 10280 10276 10271 10266 10261 10257 10253 10251 10249 10246 10244 10243 10244
10590 10589 10588 10587 10585 10584 10582 10581 10580 10578 10576 10574 10572 10570 10568 10566 10564 10561 10558 10556 10553 10550 10547 10544 10540 10537 10532 10528 10524 10520 10516 10512 10508 10505 10501 10495 10490 10485 10479 10474 10469 10463 10458 10452 10447 10441 10435 10428 10422 10415 10409 10403 10397 10390 10383 10375 10366 10358 10349 10342 10336 10330 10324 10317 10310 10305 10300 10295 10289 10285 10282 10277 10273 10269 10265 10261 10257 10251 10246 10243 10243 10241 10238 10236 10235
10583 10582 10581 10580 10579 10577 10576 10574 10574 10572 10570 10568 10566 10564 10562 10560 10558 10555 10552 10550 10547 10544 10541 10537 10534 10530 10526 10522 10517 10513 10509 10505 10502 10498 10494 10488 10483 10478 10473 10467 10461 10456 10451 10445 10440 10434 10428 10421 10415 10409 10403 10397 10391 10384 10377 10369 10362 10354 10346 10338 10332 10326 10320 10312 10304 10297 10292 10287 10282 10278 10275 10271 10267 10262 10258 10255 10252 10247 10242 10238 10236 10235 10233 10230 10228
10576 10576 10574 10573 10572 10571 10570 10569 10568 10566 10565 10562 10560 10558 10556 10554 10552 10549 10546 10543 10541 10538 10535 10531 10527 10523 10519 10515 10511 10506 10502 10499 10496 10491 10486 10481 10477 10471 10466 10460 10455 10450 10444 10439 10434 10428 10422 10416 10410 10403 10397 10391 10385 10378 10372 10365 10357 10350 10343 10335 10329 10323 10318 10312 10304 10296 10290 10283 10277 10272 10268 10265 10261 10256 10253 10249 10246 10243 10239 10235 10231 10228 10227 10225 10223
10570 10569 10568 10567 10566 10565 10564 10563 10561 10560 10559 10557 10554 10552 10550 10548 10546 10543 10540 10537 10534 10531 10528 10525 10521 10517 10513 10508 10504 10500 10496 10493 10489 10483 10479 10474 10469 10464 10459 10454 10449 10444 10438 10433 10428 10422 10416 10410 10404 10398 10392 10385 10379 10373 10367 10360 10353 10346 10339 10333 10326 10320 10315 10310 10305 10298 10292 10285 10277 10270 10265 10260 10255 10251 10247 10244 10240 10237 10235 10232 10228 10224 10222 10221 10219
10563 10562 10562 10561 10560 10558 10557 10556 10555 10554 10552 10550 10548 10546 10544 10542 10540 10537 10533 10530 10527 10525 10522 10518 10514 10510 10506 10502 10497 10494 10490 10486 10481 10477 10473 10468 10463 10458 10454 10449 10443 10438 10433 10427 10422 10417 10411 10405 10399 10393 10386 10380 10373 10367 10361 10355 10348 10342 10336 10330 10324 10318 10313 10308 10302 10297 10291 10284 10277 10269 10263 10257 10252 10247 10243 10240 10236 10232 10229 10227 10224 10221 10218 10217 10216
10557 10556 10555 10555 10554 10553 10552 10550 10549 10548 10546 10544 10542 10540 10538 10536 10534 10530 10527 10524 10520 10518 10515 10511 10508 10503 10499 10495 10491 10487 10484 10479 10475 10471 10466 10462 10457 10453 10448 10443 10438 10432 10427 10422 10417 10411 10406 10400 10393 10387 10380 10374 10367 10361 10355 10349 10343 10337 10331 10326 10321 10315 10310 10305 10299 10293 10287 10280 10273 10266 10260 10254 10249 10244 10240 10236 10233 10229 10225 10222 10220 10218 10215 10213 10212
10551 10551 10550 10549 10548 10547 10546 10544 10543 10541 10539 10538 10536 10534 10532 10530 10526 10522 10519 10517 10514 10511 10508 10505 10501 10497 10493 10489 10484 10481 10477 10472 10468 10464 10460 10456 10451 10447 10442 10437 10431 10426 10421 10416 10411 10405 10399 10393 10388 10381 10375 10368 10362 10356 10350 10344 10338 10333 10327 10322 10317 10311 10305 10301 10296 10289 10282 10276 10270 10264 10257 10251 10246 10242 10237 10233 10230 10226 10222 10218 10216 10215 10213 10211 10209
10545 10545 10544 10544 10543 10541 10540 10538 10536 10534 10533 10531 10529 10527 10525 10523 10520 10515 10512 10510 10507 10504 10502 10498 10494 10491 10487 10482 10478 10474 10470 10466 10462 10458 10454 10450 10445 10440 10435 10430 10425 10420 10415 10410 10405 10399 10393 10387 10382 10376 10369 10364 10358 10351 10346 10340 10335 10330 10325 10320 10314 10308 10302 10297 10292 10285 10278 10273 10267 10262 10256 10250 10245 10240 10236 10231 10228 10225 10221 10218 10214 10212 10210 10209 10207
10540 10539 10539 10538 10537 10535 10533 10531 10529 10528 10526 10524 10522 10520 10518 10516 10513 10509 10506 10503 10501 10498 10495 10491 10488 10484 10480 10475 10471 10467 10463 10460 10456 10452 10448 10443 10439 10434 10429 10424 10419 10414 10409 10404 10399 10393 10388 10382 10376 10370 10364 10359 10353 10348 10342 10338 10333 10327 10322 10317 10312 10306 10300 10294 10289 10282 10276 10270 10265 10260 10255 10249 10244 10239 10235 10231 10227 10224 10221 10217 10214 10211 10209 10207 10206
10533 10533 10533 10532 10530 10528 10527 10525 10523 10521 10520 10518 10515 10513 10511 10508 10505 10503 10500 10497 10494 10491 10488 10485 10481 10477 10472 10468 10464 10460 10457 10453 10449 10445 10441 10437 10433 10428 10423 10418 10413 10409 10403 10398 10393 10388 10382 10377 10371 10365 10360 10354 10350 10345 10339 10335 10330 10324 10320 10316 10311 10305 10298 10292 10286 10280 10274 10269 10264 10258 10253 10248 10243 10239 10235 10231 10226 10222 10218 10215 10213 10210 10208 10206 10205
10527 10526 10526 10525 10523 10522 10520 10518 10517 10515 10513 10511 10508 10506 10503 10500 10497 10495 10492 10489 10487 10484 10482 10478 10474 10469 10465 10461 10457 10454 10450 10447 10443 10439 10435 10431 10427 10422 10417 10413 10408 10403 10398 10393 10388 10383 10377 10372 10366 10361 10355 10350 10346 10341 10336 10331 10327 10322 10318 10314 10309 10303 10297 10291 10285 10280 10274 10268 10262 10257 10252 10248 10243 10238 10234 10229 10226 10222 10219 10216 10213 10210 10208 10206 10205
10520 10520 10519 10518 10517 10515 10514 10512 10510 10508 10506 10504 10501 10498 10496 10493 10490 10487 10484 10481 10479 10477 10474 10470 10466 10462 10458 10454 10451 10447 10444 10440 10436 10432 10429 10425 10421 10416 10412 10408 10403 10398 10393 10388 10383 10378 10372 10367 10362 10356 10351 10347 10342 10338 10335 10330 10325 10320 10315 10311 10306 10301 10295 10290 10285 10279 10273 10266 10260 10255 10250 10246 10241 10237 10233 10229 10226 10223 10220 10217 10214 10211 10209 10207 10206
10514 10513 10513 10512 10510 10509 10507 10506 10503 10501 10499 10496 10494 10491 10488 10485 10482 10479 10476 10474 10472 10470 10466 10462 10459 10455 10451 10447 10444 10441 10437 10433 10430 10426 10423 10419 10415 10411 10407 10403 10398 10393 10388 10383 10378 10373 10368 10363 10358 10352 10348 10343 10339 10335 10332 10328 10324 10318 10312 10307 10303 10298 10292 10286 10281 10276 10271 10264 10259 10253 10249 10244 10241 10237 10234 10230 10226 10223 10220 10218 10215 10212 10210 10209 10207
10507 10507 10506 10505 10503 10502 10500 10498 10496 10494 10491 10489 10486 10483 10480 10477 10474 10471 10469 10467 10465 10462 10458 10455 10451 10447 10444 10441 10437 10434 10431 10427 10423 10420 10417 10413 10409 10405 10401 10397 10393 10388 10384 10379 10374 10369 10364 10359 10354 10349 10344 10340 10335 10331 10327 10323 10320 10315 10310 10305 10301 10296 10291 10285 10279 10275 10270 10265 10260 10255 10250 10245 10241 10237 10234 10231 10227 10224 10221 10218 10216 10214 10212 10210 10209
10500 10499 10499 10498 10496 10495 10493 10491 10489 10486 10483 10480 10478 10475 10472 10469 10466 10464 10461 10459 10457 10453 10450 10447 10443 10440 10436 10434 10430 10427 10424 10421 10417 10414 10411 10407 10404 10400 10396 10392 10388 10384 10379 10374 10369 10365 10360 10356 10351 10346 10341 10337 10332 10328 10324 10319 10315 10312 10308 10304 10299 10295 10290 10285 10279 10274 10270 10266 10261 10256 10251 10246 10241 10237 10234 10231 10228 10226 10223 10220 10217 10215 10214 10212 10211
10493 10491 10491 10490 10489 10487 10485 10483 10481 10478 10475 10472 10469 10466 10463 10461 10458 10455 10453 10451 10448 10444 10441 10438 10435 10432 10429 10426 10423 10420 10417 10414 10411 10408 10405 10401 10398 10395 10391 10387 10383 10379 10375 10370 10365 10360 10356 10352 10348 10343 10339 10334 10330 10326 10322 10317 10313 10310 10306 10302 10298 10294 10289 10284 10279 10273 10269 10265 10261 10256 10251 10247 10242 10238 10235 10232 10229 10227 10224 10222 10219 10217 10216 10214 10214
10485 10484 10483 10482 10481 10479 10477 10475 10472 10469 10466 10464 10461 10458 10455 10452 10449 10447 10445 10442 10439 10436 10433 10430 10427 10424 10422 10419 10416 10413 10411 10408 10405 10402 10399 10396 10393 10389 10386 10382 10379 10375 10370 10366 10361 10357 10352 10348 10344 10340 10336 10332 10328 10324 10320 10316 10312 10308 10305 10301 10297 10293 10288 10284 10279 10274 10270 10265 10261 10256 10251 10247 10243 10239 10236 10233 10230 10228 10225 10223 10221 10219 10218 10217 10216
10477 10476 10475 10474 10473 10471 10469 10467 10464 10461 10458 10455 10452 10449 10446 10444 10442 10439 10436 10433 10430 10427 10424 10422 10419 10417 10414 10412 10409 10407 10404 10401 10399 10396 10393 10390 10387 10384 10381 10377 10374 10370 10366 10361 10357 10353 10349 10345 10341 10337 10333 10329 10326 10322 10317 10314 10310 10307 10304 10300 10296 10292 10288 10284 10279 10275 10270 10265 10261 10257 10253 10248 10243 10240 10236 10233 10231 10229 10227 10225 10223 10222 10220 10219 10218
10469 10468 10467 10466 10464 10463 10460 10457 10455 10452 10449 10446 10443 10440 10437 10435 10433 10431 10427 10424 10422 10419 10417 10414 10412 10410 10408 10405 10403 10401 10398 10395 10393 10390 10387 10385 10382 10379 10376 10372 10369 10365 10361 10357 10353 10349 10345 10342 10338 10334 10331 10327 10323 10319 10315 10312 10309 10305 10302 10298 10295 10291 10287 10283 10279 10274 10270 10265 10260 10257 10254 10250 10245 10241 10237 10234 10232 10230 10228 10227 10225 10224 10222 10221 10221
10461 10460 10459 10457 10455 10453 10450 10448 10445 10442 10439 10437 10434 10431 10429 10427 10425 10422 10419 10417 10414 10412 10410 10407 10405 10403 10401 10399 10397 10394 10392 10389 10387 10384 10382 10379 10376 10373 10371 10367 10364 10360 10356 10352 10349 10345 10341 10338 10334 10331 10328 10324 10321 10317 10313 10310 10307 10304 10300 10296 10293 10289 10285 10281 10278 10274 10270 10265 10261 10257 10254 10251 10247 10243 10239 10236 10233 10231 10229 10228 10227 10225 10224 10223 10223
10451 10450 10449 10448 10445 10443 10440 10437 10435 10432 10430 10428 10425 10423 10421 10419 10417 10414 10411 10409 10407 10405 10403 10401 10399 10397 10395 10393 10391 10388 10386 10383 10381 10379 10376 10373 10371 10368 10366 10362 10359 10356 10352 10349 10345 10341 10337 10334 10330 10327 10325 10322 10319 10315 10312 10308 10305 10302 10298 10294 10291 10287 10284 10280 10277 10273 10269 10266 10262 10258 10254 10250 10247 10244 10240 10238 10235 10232 10230 10229 10228 10227 10226 10225 10225
10442 10440 10439 10437 10435 10432 10430 10427 10425 10422 10421 10419 10416 10414 10412 10411 10409 10406 10404 10402 10400 10398 10396 10395 10393 10391 10389 10387 10384 10382 10380 10378 10376 10373 10371 10368 10366 10363 10360 10357 10354 10351 10348 10345 10341 10337 10334 10330 10327 10324 10322 10319 10316 10313 10310 10306 10303 10300 10297 10293 10290 10286 10283 10280 10276 10272 10269 10266 10262 10259 10255 10251 10247 10244 10241 10238 10236 10233 10231 10229 10228 10227 10227 10226 10226
10431 10430 10428 10427 10424 10422 10419 10417 10415 10414 10412 10409 10408 10406 10404 10402 10400 10398 10397 10395 10393 10391 10390 10388 10386 10385 10383 10381 10378 10376 10375 10373 10370 10368 10365 10363 10360 10357 10354 10352 10349 10347 10344 10341 10337 10334 10330 10327 10325 10322 10319 10316 10314 10311 10308 10304 10300 10297 10295 10292 10288 10285 10282 10278 10275 10272 10268 10265 10262 10259 10255 10251 10248 10245 10242 10239 10237 10234 10232 10230 10229 10228 10227 10227 10227
10420 10419 10417 10416 10415 10412 10410 10408 10407 10405 10403 10401 10399 10398 10396 10394 10393 10391 10390 10388 10387 10385 10383 10382 10380 10379 10377 10375 10373 10371 10369 10367 10365 10362 10360 10357 10354 10352 10349 10347 10345 10342 10340 10337 10334 10330 10327 10324 10322 10319 10316 10314 10311 10309 10306 10302 10298 10295 10292 10290 10287 10284 10280 10277 10274 10270 10267 10264 10261 10258 10255 10252 10249 10246 10243 10240 10237 10235 10233 10231 10229 10228 10227 10227 10227
10410 10408 10407 10406 10405 10404 10402 10401 10399 10397 10395 10393 10392 10390 10388 10387 10386 10384 10383 10382 10380 10379 10377 10376 10374 10373 10371 10369 10367 10366 10364 10362 10359 10357 10354 10351 10349 10346 10345 10343 10341 10338 10335 10332 10330 10327 10324 10321 10319 10316 10313 10310 10308 10305 10303 10300 10296 10293 10290 10287 10284 10282 10278 10275 10272 10269 10266 10263 10260 10257 10254 10252 10249 10246 10243 10240 10238 10235 10233 10232 10230 10228 10227 10227 10226
10400 10399 10397 10396 10395 10394 10394 10393 10391 10390 10388 10387 10385 10383 10381 10380 10379 10378 10377 10375 10374 10373 10371 10370 10369 10368 10366 10364 10362 10360 10358 10356 10354 10351 10349 10346 10344 10342 10340 10338 10336 10333 10331 10328 10326 10324 10321 10318 10315 10312 10309 10307 10304 10301 10298 10296 10293 10291 10288 10285 10282 10279 10277 10274 10271 10268 10265 10262 10259 10256 10254 10251 10248 10245 10243 10240 10238 10236 10234 10232 10230 10229 10227 10226 10226
10391 10390 10388 10387 10386 10385 10384 10384 10383 10383 10382 10381 10379 10377 10376 10375 10374 10372 10371 10369 10368 10367 10366 10365 10363 10362 10360 10358 10356 10354 10352 10351 10348 10346 10343 10341 10339 10337 10335 10332 10330 10328 10326 10324 10322 10320 10318 10315 10312 10309 10306 10303 10300 10296 10293 10291 10290 10288 10286 10283 10280 10277 10275 10272 10269 10266 10264 10261 10258 10256 10253 10251 10248 10246 10243 10240 10238 10236 10234 10232 10230 10229 10227 10226 10225
10382 10381 10380 10379 10379 10378 10376 10375 10374 10374 10373 10373 10371 10370 10369 10368 10367 10366 10365 10364 10362 10361 10360 10359 10358 10356 10354 10352 10351 10349 10347 10345 10343 10340 10338 10336 10334 10332 10330 10327 10325 10323 10321 10320 10318 10316 10314 10312 10309 10306 10303 10299 10296 10293 10290 10287 10286 10284 10282 10280 10278 10275 10273 10270 10267 10265 10262 10260 10257 10255 10252 10250 10248 10245 10243 10241 10238 10236 10234 10232 10230 10229 10227 10226 10225
10375 10374 10372 10372 10372 10371 10370 10368 10367 10366 10365 10365 10364 10363 10363 10362 10361 10359 10358 10357 10356 10355 10354 10353 10352 10350 10348 10347 10345 10343 10341 10340 10337 10335 10333 10331 10329 10327 10325 10323 10321 10319 10317 10315 10313 10312 10310 10308 10305 10303 10300 10297 10294 10291 10288 10285 10282 10280 10278 10276 10274 10272 10270 10268 10266 10263 10261 10258 10256 10254 10251 10249 10247 10245 10243 10241 10238 10236 10234 10232 10230 10228 10227 10226 10224
10368 10367 10367 10366 10365 10364 10363 10362 10361 10360 10359 10359 10358 10357 10356 10355 10355 10354 10353 10352 10351 10349 10348 10347 10346 10344 10343 10341 10339 10338 10336 10334 10332 10330 10328 10326 10324 10322 10320 10318 10316 10315 10313 10311 10309 10307 10305 10303 10301 10299 10297 10295 10292 10290 10287 10284 10281 10278 10275 10273 10271 10269 10267 10265 10263 10261 10259 10257 10255 10252 10250 10248 10246 10244 10242 10240 10238 10236 10234 10232 10230 10228 10227 10225 10224
10361 10361 10361 10360 10359 10358 10357 10356 10355 10354 10353 10353 10352 10351 10351 10350 10349 10348 10347 10346 10345 10344 10342 10341 10340 10338 10337 10335 10334 10332 10331 10329 10327 10325 10324 10322 10320 10318 10316 10314 10312 10310 10309 10307 10305 10303 10301 10299 10297 10295 10294 10292 10290 10289 10287 10284 10281 10278 10275 10272 10269 10267 10265 10262 10260 10259 10257 10255 10253 10251 10249 10247 10245 10243 10241 10239 10237 10236 10234 10232 10230 10228 10226 10225 10223
10355 10355 10355 10354 10353 10352 10351 10350 10349 10349 10348 10347 10346 10346 10345 10344 10343 10343 10342 10341 10339 10338 10337 10335 10334 10333 10331 10330 10328 10327 10325 10324 10322 10320 10319 10316 10314 10312 10310 10309 10307 10305 10304 10302 10300 10299 10297 10295 10293 10291 10289 10288 10286 10285 10284 10282 10280 10277 10274 10271 10268 10266 10263 10260 10258 10256 10255 10253 10251 10249 10247 10246 10244 10242 10240 10238 10236 10235 10233 10231 10229 10228 10226 10224 10223
10347 10348 10348 10348 10347 10346 10344 10344 10343 10343 10342 10341 10341 10340 10340 10339 10338 10337 10336 10335 10334 10333 10331 10330 10329 10327 10326 10324 10323 10321 10320 10318 10317 10315 10313 10311 10309 10307 10305 10303 10302 10300 10299 10297 10296 10295 10293 10291 10289 10287 10285 10283 10282 10280 10279 10278 10276 10274 10271 10269 10266 10263 10261 10258 10256 10254 10252 10250 10249 10247 10246 10244 10242 10240 10238 10236 10235 10233 10231 10230 10228 10227 10226 10224 10222
10340 10340 10341 10340 10340 10339 10339 10338 10337 10336 10335 10333 10333 10333 10333 10333 10332 10331 10330 10329 10328 10326 10325 10324 10323 10322 10320 10318 10317 10316 10314 10312 10311 10309 10307 10305 10304 10302 10300 10298 10297 10295 10294 10293 10292 10290 10288 10286 10284 10282 10280 10279 10277 10276 10274 10273 10271 10269 10267 10265 10263 10261 10258 10255 10253 10251 10249 10247 10246 10245 10243 10241 10240 10238 10236 10234 10233 10231 10229 10228 10226 10225 10224 10223 10222
10333 10333 10333 10333 10333 10333 10332 10332 10331 10330 10329 10328 10326 10326 10325 10325 10324 10324 10323 10322 10321 10320 10319 10318 10317 10315 10314 10312 10311 10310 10308 10306 10305 10303 10302 10300 10298 10297 10295 10293 10292 10291 10290 10288 10287 10285 10283 10281 10279 10277 10276 10274 10272 10271 10269 10267 10266 10264 10263 10261 10259 10257 10255 10252 10250 10248 10245 10243 10242 10241 10240 10239 10237 10235 10233 10231 10230 10229 10227 10226 10224 10223 10222 10221 10220
10327 10327 10327 10327 10326 10326 10325 10325 10324 10323 10323 10323 10322 10321 10320 10319 10318 10318 10317 10316 10315 10314 10313 10312 10310 10309 10308 10306 10305 10304 10302 10301 10299 10298 10296 10295 10294 10292 10291 10289 10288 10286 10285 10283 10282 10280 10278 10276 10274 10273 10271 10269 10267 10265 10263 10262 10261 10259 10257 10256 10254 10252 10251 10249 10247 10245 10242 10240 10238 10237 10236 10235 10233 10232 10230 10228 10227 10226 10225 10223 10222 10221 10220 10218 10217